Regional Weather Roundup
Issued by NWS Midland/Odessa, TX

Home | Current Version | Previous Version | Text Only | Print | Product List | Glossary On
Versions: 1 2 3 4 5 6 7 8 9 10 11 12 13 14 15 16 17 18 19 20 21 22 23 24 25 26 27 28 29 30 31 32 33 34 35 36 37 38 39 40 41 42 43 44 45 46 47 48 49 50
000
ASUS44 KMAF 170410
RWRMAF
MIDLAND AREA WEATHER ROUNDUP
NATIONAL WEATHER SERVICE MIDLAND TX
1100 PM CDT WED APR 16 2014

...IN SOUTHWEST TEXAS AND SOUTHEAST NEW MEXICO...

CITY           SKY/WX    TMP DP  RH WIND       PRES   REMARKS
ALPINE         PTCLDY    62  19  19 SW5       29.92R
ANDREWS        FAIR      62  33  33 S15G28    29.82R
ARTESIA        PTCLDY    63   3   9 W14       29.74R
BIG SPRING     CLEAR     64  32  30 SE23      29.85S
CARLSBAD       PTCLDY    59   2  10 SE7       29.74R
DRYDEN           N/A     65  40  39 SE17G26   29.83R
FORT STOCKTON  CLEAR     62  34  35 SE24G31   29.80R
GUAD PASS      CLEAR     67   0   7 W12       29.89R
HOBBS          LGT RAIN  63  28  27 S17G26    29.80S
MARFA          PTCLDY    57   7  13 SE5       29.91R
MIDLAND AIRPK  CLEAR     64  32  30 SE16G25   29.83R
MIDLAND INTL   CLEAR     62  34  35 SE20      29.83R
ODESSA         CLEAR     62  32  32 S18G28    29.82R
PECOS          CLEAR     65  31  28 E12       29.75R
PRESIDIO       FAIR      71  17  12 N6        29.77S
SEMINOLE       CLEAR     62  32  31 S17       29.82R
SNYDER         CLEAR     62  28  27 SE13      29.86R
WINK           CLEAR     64  33  31 SE20G28   29.77R
$$
...OTHER STATIONS IN TEXAS...

CITY           SKY/WX    TMP DP  RH WIND       PRES   REMARKS
ABILENE        CLEAR     63  35  35 SE18G28   29.89R
AMARILLO       MOCLDY    57  18  21 NE18      29.92R
AUSTIN         CLOUDY    60  49  66 S13       29.99R
BROWNSVILLE    CLOUDY    64  58  80 SE5       29.99R
CORPUS CHRISTI CLOUDY    66  56  70 SE9       29.99R
DALLAS FTW     CLEAR     57  41  55 SE14      30.00R
DEL RIO        CLOUDY    68  43  40 SE10      29.87S
EL PASO        PTCLDY    77  -1   5 W22G29    29.80R
HOUSTON INT    PTCLDY    57  51  80 E8        30.05R
LUBBOCK        CLOUDY    65  28  24 S23G35    29.79R
SAN ANGELO     CLEAR     62  35  36 S6        29.89R
SAN ANTONIO    CLOUDY    62  49  62 SE16      29.98R
WACO           CLEAR     58  46  64 SE13      29.99R
WICHITA FALLS  NOT AVBL
$$
...OTHER LOCATIONS IN NEW MEXICO...

CITY           SKY/WX    TMP DP  RH WIND       PRES   REMARKS
ALAMAGORDO     MOCLDY    64   0   7 SE12      29.79S
ALBUQUERQUE    CLOUDY    60  23  24 N13       29.94R
CANNON AFB     CLOUDY    57  26  31 NE31G44   29.84R
CLOVIS         CLOUDY    59  25  27 N30G44    29.88R
HOLLOMAN AFB   CLOUDY    70  -4   5 SW13      29.76S
ROSWELL        MOCLDY    68  11  11 NW7       29.73R
RUIDOSO        CLOUDY    59   0   9 NW3       29.95S
SANTA FE       CLOUDY    54  20  26 W5        29.96R
TRUTH OR CONSE CLOUDY    70   3   7 NW9       29.85R
TUCUMCARI      CLOUDY    58  26  29 NE25G37   29.91R
$$



USA.gov is the U.S. government's official web portal to all federal, state and local government web resources and services.